SCP
0 0 0 0 0 0 0 0 0 0 0 0 0 0 0 0 0 0 0 0 0 0 0 0 0 0 0 0 0 -0 -0 -0 -0 -0 -0 -0 -0 0 0 0 0 0 0
0 0 0 0 0 0 0 0 0 0 0 0 0 0 0 0 0 0 0 0 0 0 0 0 0 0 0 0 0 -0 -0 -0 -0 -0 -0 -0 -0 -0 0 0 0 0 0
0 0 0 0 0 0 0 0 0 0 0 0 0 0 0 0 0 0 0 0 0 0 0 0 0 0 0 0 0 -0 -0 -0 -0 -0 -0 -0 -0 0 0 0 0 0 0
0 0 0 0 0 0 0 0 0 0 0 0 0 0 0 0 0 0 0 0 0 0 0 0 0 0 0 0 0 0 0 0 0 0 -0 -0 -0 0 0 0 0 0 0
0 0 0 0 0 0 0 0 0 0 0 0 0 0 0 0 0 0 0 0 0 0 0 0 0 0 0 0 0 0 0 0 0 0 0 0 0 0 0 0 0 0 0
0 0 0 0 0 0 0 0 0 0 0 0 0 0 0 0 0 0 0 0 0 0 0 0 0 0 0 0 0 0 0 0 0 0 0 0 0 0 0 0 0 0 0
0 0 0 0 0 0 0 0 0 0 0 0 0 0 0 0 0 0 0 0 0 0 0 0 0 0 0 0 0 0 0 0 0 0 0 0 0 0 0 0 0 0 0
0 0 0 0 0 0 0 0 0 0 0 0 0 0 0 0 0 0 0 0 0 0 0 0 0 0 0 0 0 0 0 0 0 0 0 0 0 0 0 0 0 0 0
0 0 0 0 0 0 0 0 0 0 0 0 0 0 0 0 0 0 0 0 0 0 0 0 0 0 0 0 0 0 0 0 0 0 0 0 0 0 0 0 0 0 0
0 0 0 0 0 0 0 0 0 0 0 0 0 0 0 0 0 0 0 0 0 0 0 0 0 0 0 0 0 0 0 0 0 0 0 0 0 0 0 0 0 0 0
0 0 0 0 0 0 0 0 0 0 0 0 0 0 0 0 0 0 0 0 0 0 0 0 0 0 0 -0 0 0 0 0 0 0 0 0 0 0 0 0 0 0 0
0 0 0 0 0 0 0 0 0 0 0 0 0 0 0 0 0 0 0 0 0 0 0 0 0 0 -0 -0 0 0 0 0 0 0 0 0 0 0 0 0 0 0 0
0 0 0 0 0 0 0 0 0 0 0 0 0 0 0 0 0 0 0 0 0 0 0 0 0 -0 0 0 0 0 0 0 0 0 0 0 0 0 0 0 0 0 0
0 0 0 0 0 0 0 0 0 0 0 0 0 0 0 0 0 0 0 0 0 0 0 0 0 0 0 0 0 0 0 0 0 0 0 0 0 0 0 0 0 0 0
0 0 0 0 0 0 0 0 0 0 0 0 0 0 0 0 0 0 0 0 0 0 0 0 0 0 0 0 0 0 0 0 0 0 0 0 0 0 0 0 0 0 0
0 0 0 0 0 0 0 0 0 0 0 0 0 0 0 0 0 0 0 0 0 0 0 0 0 0 0 0 0 0 0 0 0 0 0 0 0 0 0 0 0 0 0
0 0 0 0 0 0 0 0 0 0 0 0 0 0 0 0 0 0 0 0 0 0 0 0 0 0 0 0 0 0 0 0 0 0 0 0 0 0 0 0 0 0 0
0 0 0 0 0 0 0 0 0 0 0 0 0 0 0 0 0 0 0 0 0 0 0 0 0 0 0 0 0 0 0 0 0 0 0 0 0 -0 0 0 0 0 0
0 0 0 0 0 0 0 0 0 0 0 0 0 0 0 0 0 0 0 0 0 0 0 0 0 0 0 0 0 0 -0 -0 0 0 0 0 0 0 0 0 0 0 0
0 0 0 0 0 0 0 0 0 0 0 0 0 0 0 0 0 0 0 0 0 0 0 0 0 0 0 0 0 0 -0 -0 0 0 0 0 0 0 0 0 0 0 0
0 0 0 0 0 0 0 0 0 0 0 0 0 0 0 0 0 0 0 0 0 0 0 0 0 0 0 0 0 0 0 -0 -0 0 0 0 0 0 0 0 0 0 0
0 0 0 0 0 0 0 0 0 0 0 0 0 0 0 0 0 0 0 0 0 0 0 0 0 0 0 0 0 0 0 -0 -0 0 0 0 0 0 0 0 0 0 0
0 0 0 0 0 0 0 0 0 0 0 0 0 0 0 0 0 0 0 0 0 0 0 0 0 0 0 0 0 0 0 -0 -0 -0 0 0 0 0 0 0 0 0 0
0 0 0 0 0 0 0 0 0 0 0 0 0 0 0 0 0 0 0 0 0 0 0 0 0 0 0 0 0 0 0 0 -0 -0 0 0 0 0 0 0 0 0 0
0 0 0 0 0 0 0 0 0 0 0 0 0 0 0 0 0 0 0 0 0 0 0 0 0 0 0 0 0 0 0 0 -0 -0 0 0 0 0 0 0 0 0 0
0 0 0 0 0 0 0 0 0 0 0 0 0 0 0 0 0 0 0 0 0 0 0 0 0 0 0 0 0 0 0 0 0 -0 0 0 0 0 0 0 0 0 0
Wind_Speed
4 3 2 4 5 6 6 6 7 7 6 6 8 8 8 7 6 6 9 10 11 12 9 8 8 8 7 9 9 10 11 10 10 11 12 10 9 7 5 7 8 8 11
2 2 5 4 4 4 5 6 7 7 7 6 5 5 6 5 5 6 7 8 10 11 10 10 8 8 8 9 9 9 7 9 10 10 11 8 7 6 8 6 7 8 9
3 3 3 2 2 4 5 8 7 7 7 7 6 7 4 4 4 5 5 7 9 9 9 10 8 8 7 7 9 7 8 10 9 7 7 7 7 12 6 5 6 8 9
2 1 1 1 2 4 4 6 6 6 6 7 7 9 9 7 7 6 6 8 8 9 8 10 8 8 7 7 8 8 7 8 9 9 6 7 9 8 9 7 4 8 10
3 1 0 1 3 4 5 5 6 6 6 7 7 8 8 6 7 8 8 7 7 7 8 10 7 9 8 7 8 8 7 7 8 9 9 9 8 8 9 13 11 9 6
3 1 1 3 4 4 5 5 6 6 6 7 7 8 9 9 11 11 9 8 6 6 9 11 7 9 8 8 9 8 9 8 10 9 8 9 8 8 8 10 13 13 10
2 1 3 4 5 6 6 6 6 6 7 7 7 8 8 8 10 11 10 10 9 7 9 10 8 8 8 9 9 9 9 10 10 10 9 9 9 9 9 10 11 14 11
1 2 3 4 5 6 6 6 7 7 7 7 8 8 7 7 7 9 10 10 9 10 10 10 10 10 10 12 10 9 9 9 10 12 12 9 9 9 8 8 10 12 10
0 3 4 5 5 6 6 6 7 7 8 8 8 7 8 8 9 10 9 8 9 11 12 13 11 10 11 11 10 8 10 11 10 11 12 10 8 8 7 7 8 9 13
1 3 4 4 5 5 5 6 6 7 8 8 7 11 9 9 9 9 11 11 12 12 13 13 12 11 12 11 10 10 10 12 11 10 12 11 8 7 7 7 8 9 11
0 2 3 4 5 5 6 6 7 8 8 8 8 9 9 9 9 9 10 11 11 12 13 14 13 13 13 11 10 11 13 12 12 12 12 12 10 8 7 7 8 9 10
1 1 3 4 5 6 6 7 7 8 8 8 8 9 10 10 10 10 11 11 12 12 13 14 14 14 14 13 12 13 13 12 12 12 11 10 8 8 7 7 8 8 10
1 2 3 4 5 6 7 7 8 8 8 8 9 9 10 10 10 11 11 11 12 12 14 14 15 16 16 16 15 13 12 11 10 9 8 8 8 9 7 8 7 8 9
1 2 3 4 5 6 6 7 8 8 9 9 9 9 10 10 10 11 11 11 12 12 13 15 16 17 18 15 11 8 6 5 5 6 7 8 8 11 10 7 8 10 10
2 3 4 5 6 6 6 7 8 8 9 9 10 10 10 10 10 11 11 11 12 14 13 15 17 18 16 11 9 8 9 8 8 9 9 9 13 19 15 11 10 10 9
2 3 4 5 6 6 7 7 7 8 8 8 9 10 11 11 11 11 11 12 12 12 13 14 16 18 16 22 26 18 11 10 10 10 10 10 10 15 21 22 20 18 13
2 3 3 4 5 6 6 7 8 7 8 8 9 10 10 11 12 12 12 12 11 11 12 13 14 16 19 25 25 24 12 11 10 10 10 11 13 11 7 15 19 17 21
1 1 3 4 4 5 5 6 7 7 7 8 9 9 10 10 11 10 10 9 8 9 9 10 13 14 19 26 23 21 11 9 10 11 11 10 11 13 12 10 10 9 12
3 1 1 2 4 5 5 6 6 7 7 8 9 10 9 10 10 10 10 8 8 7 8 9 11 13 16 25 22 18 7 8 10 11 13 13 9 23 22 14 12 11 11
3 2 0 2 3 5 5 6 6 7 8 9 9 9 9 10 9 10 8 7 7 8 9 10 9 11 12 22 23 17 7 8 8 9 12 18 19 23 23 13 12 13 12
4 2 1 2 3 4 5 6 6 7 8 8 8 9 9 9 8 9 7 8 8 8 8 8 9 9 13 18 23 20 6 8 9 8 8 10 22 23 24 19 13 17 14
3 2 2 2 3 4 5 5 6 7 7 7 7 8 8 8 9 8 8 7 7 6 7 7 8 7 9 14 17 22 19 15 9 9 7 11 22 22 23 18 21 23 17
4 2 2 2 3 4 4 4 6 6 6 7 7 7 7 6 7 6 7 7 6 4 5 6 6 7 7 8 16 18 19 20 9 8 17 19 22 19 15 22 24 18 11
4 3 2 2 3 4 4 3 5 6 6 6 7 6 6 6 6 6 6 5 6 5 4 5 5 6 7 6 4 4 6 11 9 7 13 18 20 16 17 17 14 11 11
4 4 3 1 2 3 4 4 5 5 5 6 6 6 7 5 5 6 6 7 5 8 7 4 4 5 5 8 14 8 6 4 7 7 7 7 8 10 10 10 10 10 11
5 4 3 1 1 2 3 5 5 5 4 5 5 5 5 5 5 5 6 11 12 16 16 15 12 8 12 14 14 14 15 16 16 9 6 7 8 9 9 9 10 10 10
Wind_Direction
131 143 80 53 37 23 8 0 350 346 351 354 355 351 348 343 341 341 343 344 342 341 338 347 338 343 338 332 333 331 333 333 331 324 318 300 283 286 324 325 317 337 349
129 71 45 35 24 8 352 358 355 352 354 351 341 334 325 319 326 321 327 334 338 337 344 342 336 338 334 330 331 330 333 329 333 325 322 317 310 339 318 308 317 347 339
104 53 26 19 359 359 358 4 351 349 348 345 343 340 323 312 322 320 326 329 329 329 330 332 328 329 329 326 325 326 333 325 322 321 316 317 324 324 301 315 331 335 327
111 81 336 351 4 355 356 354 345 342 344 346 348 347 345 333 326 322 317 316 317 318 325 326 324 324 321 320 320 334 317 316 316 314 298 303 307 305 309 311 316 322 326
153 182 240 13 8 357 353 346 338 337 341 344 342 338 332 322 320 322 319 316 313 313 321 321 322 322 317 313 312 312 310 308 303 304 305 302 299 287 294 304 315 317 310
189 207 3 3 353 353 349 340 336 333 338 341 338 331 328 326 328 329 324 324 320 316 317 319 321 318 314 311 310 308 307 302 297 297 298 300 298 300 299 298 308 310 311
212 327 357 353 348 346 340 333 336 335 338 338 335 327 326 324 324 327 327 327 326 325 317 318 316 316 312 310 310 308 305 299 298 298 295 291 286 286 288 293 299 301 306
226 10 7 358 344 337 334 335 339 337 337 336 331 324 326 327 325 325 325 325 324 320 314 317 312 310 312 313 309 304 302 301 301 296 294 288 281 278 280 286 296 300 300
51 25 8 357 344 338 339 338 338 337 334 331 325 327 327 321 321 321 321 321 321 320 321 315 310 308 307 307 306 302 302 299 296 293 293 289 281 279 280 279 280 286 294
33 23 357 347 342 341 339 337 338 332 324 323 320 337 322 315 317 320 322 322 320 318 315 316 313 308 307 304 302 302 299 298 295 294 295 293 285 283 279 275 272 267 272
69 352 341 345 343 342 340 337 337 332 326 319 313 316 315 316 317 318 319 319 316 315 317 318 315 312 308 304 301 298 298 297 297 297 298 297 294 288 282 278 274 270 266
141 3 359 350 343 344 342 340 335 331 324 318 318 320 318 318 318 319 318 317 315 316 318 317 315 313 311 306 299 296 296 293 293 298 302 307 316 313 302 293 286 281 271
132 19 4 346 341 344 341 336 331 326 323 323 327 325 323 323 322 320 318 316 317 318 319 320 318 318 315 307 298 289 284 283 288 299 316 337 350 345 333 324 325 310 293
89 25 0 342 342 340 335 331 327 326 334 336 331 331 330 327 323 320 318 319 322 323 324 324 324 324 320 314 310 306 309 319 333 349 351 350 4 358 345 345 345 334 327
54 26 3 343 341 338 333 330 326 329 334 334 337 337 333 328 327 327 325 326 330 331 327 328 330 331 331 350 24 29 35 31 18 9 1 356 11 11 4 5 4 353 351
52 21 355 343 341 334 329 329 328 330 332 332 333 333 336 335 333 332 334 335 334 331 332 332 334 338 343 22 48 48 33 25 16 7 358 356 2 14 9 9 13 8 5
64 12 337 328 326 325 326 328 327 326 331 330 331 333 334 333 333 336 338 338 334 335 336 336 340 342 347 24 40 40 31 19 12 4 358 2 357 16 4 1 9 7 8
109 332 314 318 321 325 329 326 326 330 331 330 331 333 333 331 331 336 338 336 333 336 336 336 344 346 352 19 37 33 21 13 8 1 355 356 350 6 21 0 359 3 1
144 184 268 293 325 335 334 334 333 333 335 338 337 335 335 335 336 340 338 335 333 333 337 345 348 349 347 7 32 37 6 9 3 2 359 2 358 8 20 10 0 3 0
138 145 298 343 353 340 342 347 340 341 345 342 337 336 339 338 338 339 336 338 336 341 347 350 350 347 344 1 22 42 21 10 4 1 357 1 13 10 17 15 3 8 1
136 129 75 24 348 337 354 354 344 343 337 335 335 340 342 339 346 339 336 341 343 339 342 348 349 347 354 0 15 32 45 19 6 4 355 356 12 12 15 18 12 13 10
141 133 83 24 348 351 6 357 342 328 328 332 337 338 339 345 355 336 334 337 339 335 339 347 351 346 343 356 10 22 30 36 14 358 350 0 14 14 14 16 15 14 12
156 145 105 40 356 356 10 355 324 323 330 332 332 330 336 341 342 334 332 336 341 338 343 350 350 343 341 339 5 16 20 24 25 1 12 14 16 13 9 12 16 13 6
159 148 115 58 359 346 355 334 316 324 333 331 327 330 337 340 337 342 342 337 337 338 334 332 333 330 332 324 320 336 5 13 18 7 4 13 13 15 11 11 11 9 8
158 150 138 99 336 335 341 327 319 324 334 329 327 330 341 332 332 339 339 342 328 354 352 328 310 311 315 341 1 10 3 1 15 11 3 5 6 9 8 7 8 8 8
158 156 157 165 304 330 333 320 315 322 335 335 330 321 328 334 335 326 331 348 355 356 356 352 352 341 345 350 356 1 4 6 14 18 3 6 6 7 5 5 4 7 10